logo
Search for airport 
image banner adimage banner adimage banner ad
image banner ad

LODV - Lkh Weststeiermark Standort Voitsberg Lkh

Located in District Voitsberg, Austria

ICAO - , IATA -

Data provided by Airmate  

General information

Coordinates: N47°3'8" E15°8'22"
Elevation is 1322 feet MSL.
 
View others Airports in Styria

Operational data

Special qualification required
Current time UTC:
Current local time:
Weather at : LOWG - Graz ( 24 km )
METAR: LOWG 171320Z AUTO 09006KT 020V150 9999 FEW050 30/17 Q1018 NOSIG
TAF: TAF LOWG 171115Z 1712/1812 VRB03KT 9999 FEW050 TX28/1812Z TN18/1804Z TEMPO 1718/1724 SHRA PROB30 TEMPO 1718/1721 32015G25KT TSRA SCT040 FEW050CB PROB30 TEMPO 1803/1806 4000 BCFG TEMPO 1807/1812 09008KT
View NOTAMs / SUP AIP / TFR affecting this airport [VIEW]
Communications frequencies: [VIEW]

Runways:

Airport contact information

Address: District Voitsberg Austria

Satellite view of LODV